DEEEE EDXW-EDDH

Flight info

Callsign DEEEE
Flight time 0h 44m
Altitude 4000
Route 545639N0081758E 545605N0081640E 545424N0081543E DCT 544429N0081507E DCT OLDIP DCT BADOS DCT OMWEG DCT 534825N0100121E DCT 534106N0095950E 533934N0100032E 533853N0100060E 533834N0100048E DCT 533817N0100012E
Aircraft BE36/L-BDFGLORY/S

Departure

Time 2026-04-26 13:26
Airport Westerland Sylt Airport (EDXW)

Arrival

Time 2026-04-26 14:11
Airport Hamburg Helmut Schmidt Airport (EDDH)
Time Latitude Longitude Altitude Speed Heading
2026-04-26 13:13 54.91251 8.32516 19 ft 0 kts 243°
2026-04-26 13:19 54.91227 8.32512 19 ft 7 kts 149°
2026-04-26 13:19 54.91199 8.32565 19 ft 6 kts 117°
2026-04-26 13:19 54.91174 8.32659 19 ft 11 kts 119°
2026-04-26 13:20 54.91141 8.32739 19 ft 1 kts 178°
2026-04-26 13:20 54.91080 8.32782 20 ft 9 kts 104°
2026-04-26 13:20 54.91057 8.32895 26 ft 15 kts 121°
2026-04-26 13:20 54.90980 8.33053 21 ft 17 kts 130°
2026-04-26 13:21 54.90909 8.33139 22 ft 10 kts 147°
2026-04-26 13:21 54.90858 8.33183 23 ft 14 kts 160°
2026-04-26 13:21 54.90693 8.33232 28 ft 19 kts 175°
2026-04-26 13:21 54.90567 8.33243 26 ft 18 kts 173°
2026-04-26 13:22 54.90454 8.33300 26 ft 17 kts 152°
2026-04-26 13:22 54.90362 8.33412 24 ft 16 kts 136°
2026-04-26 13:22 54.90296 8.33555 23 ft 15 kts 117°
2026-04-26 13:22 54.90263 8.33717 23 ft 14 kts 103°
2026-04-26 13:23 54.90250 8.33873 23 ft 12 kts 100°
2026-04-26 13:23 54.90237 8.34015 23 ft 11 kts 96°
2026-04-26 13:23 54.90237 8.34144 24 ft 10 kts 85°
2026-04-26 13:23 54.90246 8.34254 24 ft 8 kts 79°
2026-04-26 13:24 54.90259 8.34371 25 ft 13 kts 82°
2026-04-26 13:24 54.90276 8.34542 27 ft 16 kts 79°
2026-04-26 13:24 54.90294 8.34727 29 ft 14 kts 79°
2026-04-26 13:24 54.90312 8.34890 31 ft 15 kts 79°
2026-04-26 13:25 54.90333 8.35061 31 ft 13 kts 63°
2026-04-26 13:25 54.90378 8.35154 33 ft 11 kts 31°
2026-04-26 13:25 54.90427 8.35155 33 ft 7 kts 329°
2026-04-26 13:25 54.90638 8.34885 41 ft 72 kts 320°
2026-04-26 13:26 54.91103 8.34270 253 ft 98 kts 322°
2026-04-26 13:26 54.91713 8.33495 457 ft 120 kts 321°
2026-04-26 13:26 54.92195 8.32867 611 ft 134 kts 321°
2026-04-26 13:26 54.92979 8.31832 823 ft 147 kts 320°
2026-04-26 13:27 54.93773 8.30652 1000 ft 158 kts 306°
2026-04-26 13:27 54.94017 8.28850 1004 ft 152 kts 259°
2026-04-26 13:27 54.93397 8.27478 996 ft 149 kts 209°
2026-04-26 13:27 54.92084 8.26876 1003 ft 145 kts 198°
2026-04-26 13:28 54.91427 8.26567 1003 ft 146 kts 199°
2026-04-26 13:28 54.90415 8.26131 1002 ft 153 kts 187°
2026-04-26 13:28 54.89342 8.26112 1007 ft 155 kts 185°
2026-04-26 13:28 54.88259 8.26050 1013 ft 157 kts 185°
2026-04-26 13:29 54.87179 8.25983 1011 ft 158 kts 186°
2026-04-26 13:29 54.86083 8.25916 1011 ft 156 kts 185°
2026-04-26 13:29 54.85000 8.25853 1011 ft 156 kts 186°
2026-04-26 13:29 54.83909 8.25784 1010 ft 156 kts 186°
2026-04-26 13:30 54.82818 8.25720 1011 ft 156 kts 186°
2026-04-26 13:30 54.81745 8.25654 1010 ft 157 kts 185°
2026-04-26 13:30 54.80649 8.25587 1008 ft 158 kts 185°
2026-04-26 13:30 54.79542 8.25521 1016 ft 159 kts 186°
2026-04-26 13:31 54.78436 8.25453 1014 ft 159 kts 185°
2026-04-26 13:31 54.77329 8.25387 1012 ft 159 kts 185°
2026-04-26 13:31 54.76219 8.25320 1014 ft 160 kts 185°
2026-04-26 13:31 54.75099 8.25393 1012 ft 163 kts 169°
2026-04-26 13:32 54.74105 8.26277 1011 ft 164 kts 142°
2026-04-26 13:32 54.73414 8.27847 1004 ft 165 kts 116°
2026-04-26 13:32 54.72934 8.29638 1072 ft 162 kts 116°
2026-04-26 13:32 54.72457 8.31377 1204 ft 159 kts 115°
2026-04-26 13:33 54.71991 8.33086 1329 ft 156 kts 116°
2026-04-26 13:33 54.71532 8.34772 1452 ft 154 kts 116°
2026-04-26 13:33 54.71077 8.36440 1498 ft 158 kts 116°
2026-04-26 13:33 54.70603 8.38177 1500 ft 161 kts 116°
2026-04-26 13:34 54.70119 8.39943 1505 ft 164 kts 116°
2026-04-26 13:34 54.69630 8.41738 1508 ft 166 kts 116°
2026-04-26 13:34 54.69136 8.43531 1509 ft 164 kts 116°
2026-04-26 13:34 54.68807 8.44739 1511 ft 164 kts 116°
2026-04-26 13:35 54.68158 8.47113 1515 ft 165 kts 117°
2026-04-26 13:35 54.67661 8.48910 1509 ft 165 kts 116°
2026-04-26 13:35 54.67175 8.50708 1509 ft 164 kts 116°
2026-04-26 13:35 54.66685 8.52485 1503 ft 163 kts 117°
2026-04-26 13:36 54.66198 8.54248 1509 ft 163 kts 117°
2026-04-26 13:36 54.65711 8.56020 1509 ft 163 kts 116°
2026-04-26 13:36 54.65230 8.57769 1506 ft 162 kts 117°
2026-04-26 13:36 54.64744 8.59527 1504 ft 162 kts 117°
2026-04-26 13:37 54.64258 8.61292 1510 ft 163 kts 116°
2026-04-26 13:37 54.63767 8.63071 1507 ft 165 kts 117°
2026-04-26 13:37 54.63271 8.64863 1507 ft 165 kts 117°
2026-04-26 13:37 54.62778 8.66651 1506 ft 164 kts 117°
2026-04-26 13:38 54.62286 8.68430 1508 ft 164 kts 116°
2026-04-26 13:38 54.61784 8.70192 1508 ft 163 kts 122°
2026-04-26 13:38 54.61043 8.71606 1501 ft 162 kts 138°
2026-04-26 13:38 54.60250 8.73000 1501 ft 163 kts 136°
2026-04-26 13:39 54.59460 8.74398 1502 ft 163 kts 137°
2026-04-26 13:39 54.58662 8.75801 1504 ft 163 kts 137°
2026-04-26 13:39 54.57863 8.77205 1504 ft 164 kts 136°
2026-04-26 13:39 54.57064 8.78606 1502 ft 163 kts 136°
2026-04-26 13:40 54.56275 8.79987 1505 ft 163 kts 137°
2026-04-26 13:40 54.55478 8.81383 1502 ft 163 kts 137°
2026-04-26 13:40 54.54675 8.82792 1502 ft 165 kts 137°
2026-04-26 13:40 54.53869 8.84202 1498 ft 163 kts 136°
2026-04-26 13:41 54.53080 8.85576 1494 ft 161 kts 136°
2026-04-26 13:41 54.52296 8.86948 1498 ft 160 kts 136°
2026-04-26 13:41 54.51524 8.88297 1489 ft 160 kts 137°
2026-04-26 13:41 54.50734 8.89663 1505 ft 166 kts 138°
2026-04-26 13:42 54.49916 8.91105 1488 ft 167 kts 137°
2026-04-26 13:42 54.49104 8.92523 1495 ft 167 kts 137°
2026-04-26 13:42 54.48286 8.93953 1487 ft 166 kts 137°
2026-04-26 13:42 54.47475 8.95358 1479 ft 165 kts 137°
2026-04-26 13:43 54.46671 8.96756 1488 ft 164 kts 136°
2026-04-26 13:43 54.45872 8.98147 1488 ft 163 kts 136°
2026-04-26 13:43 54.45064 8.99543 1489 ft 166 kts 136°
2026-04-26 13:43 54.44266 9.00945 1492 ft 166 kts 136°
2026-04-26 13:44 54.43443 9.02373 1489 ft 166 kts 136°
2026-04-26 13:44 54.42630 9.03770 1497 ft 170 kts 137°
2026-04-26 13:44 54.41798 9.05218 1475 ft 169 kts 135°
2026-04-26 13:44 54.40981 9.06643 1476 ft 166 kts 136°
2026-04-26 13:45 54.40163 9.08058 1490 ft 169 kts 136°
2026-04-26 13:45 54.39329 9.09505 1488 ft 170 kts 136°
2026-04-26 13:45 54.38487 9.10948 1485 ft 171 kts 136°
2026-04-26 13:45 54.37654 9.12393 1476 ft 169 kts 136°
2026-04-26 13:46 54.36817 9.13730 1488 ft 165 kts 149°
2026-04-26 13:46 54.35799 9.14719 1479 ft 167 kts 153°
2026-04-26 13:46 54.34816 9.15704 1476 ft 163 kts 153°
2026-04-26 13:46 54.33831 9.16695 1471 ft 163 kts 153°
2026-04-26 13:47 54.32854 9.17671 1474 ft 162 kts 153°
2026-04-26 13:47 54.31872 9.18641 1485 ft 165 kts 152°
2026-04-26 13:47 54.30890 9.19636 1479 ft 166 kts 153°
2026-04-26 13:47 54.29895 9.20616 1478 ft 164 kts 152°
2026-04-26 13:48 54.28920 9.21603 1478 ft 161 kts 152°
2026-04-26 13:48 54.27952 9.22566 1474 ft 160 kts 153°
2026-04-26 13:48 54.26994 9.23517 1471 ft 158 kts 152°
2026-04-26 13:48 54.26048 9.24458 1480 ft 157 kts 153°
2026-04-26 13:49 54.25095 9.25404 1481 ft 159 kts 152°
2026-04-26 13:49 54.24115 9.26377 1483 ft 165 kts 152°
2026-04-26 13:49 54.23124 9.27370 1491 ft 165 kts 152°
2026-04-26 13:49 54.22126 9.28354 1495 ft 166 kts 153°
2026-04-26 13:50 54.21133 9.29332 1487 ft 166 kts 152°
2026-04-26 13:50 54.20133 9.30315 1487 ft 165 kts 153°
2026-04-26 13:50 54.19142 9.31330 1491 ft 167 kts 152°
2026-04-26 13:50 54.18147 9.32309 1483 ft 163 kts 153°
2026-04-26 13:51 54.17166 9.33271 1479 ft 161 kts 153°
2026-04-26 13:51 54.16206 9.34228 1475 ft 160 kts 153°
2026-04-26 13:51 54.15243 9.35175 1476 ft 159 kts 153°
2026-04-26 13:51 54.14286 9.36119 1487 ft 158 kts 152°
2026-04-26 13:52 54.13325 9.37060 1489 ft 161 kts 153°
2026-04-26 13:52 54.12354 9.38022 1486 ft 160 kts 152°
2026-04-26 13:52 54.11395 9.38983 1481 ft 161 kts 152°
2026-04-26 13:52 54.10427 9.39931 1496 ft 160 kts 153°
2026-04-26 13:53 54.09471 9.40876 1481 ft 160 kts 153°
2026-04-26 13:53 54.08510 9.41829 1474 ft 159 kts 153°
2026-04-26 13:53 54.07539 9.42771 1483 ft 162 kts 153°
2026-04-26 13:53 54.06568 9.43725 1480 ft 159 kts 153°
2026-04-26 13:54 54.05606 9.44676 1475 ft 160 kts 152°
2026-04-26 13:54 54.04633 9.45642 1485 ft 162 kts 153°
2026-04-26 13:54 54.03647 9.46604 1483 ft 166 kts 152°
2026-04-26 13:55 54.01677 9.48538 1477 ft 161 kts 153°
2026-04-26 13:55 54.01039 9.49168 1477 ft 160 kts 151°
2026-04-26 13:55 53.99415 9.52585 1479 ft 163 kts 123°
2026-04-26 13:56 53.98789 9.54226 1487 ft 168 kts 124°
2026-04-26 13:56 53.98158 9.55907 1475 ft 167 kts 123°
2026-04-26 13:56 53.97537 9.57570 1489 ft 168 kts 123°
2026-04-26 13:56 53.96904 9.59266 1481 ft 170 kts 123°
2026-04-26 13:57 53.96274 9.60963 1480 ft 170 kts 124°
2026-04-26 13:57 53.95642 9.62640 1483 ft 166 kts 123°
2026-04-26 13:57 53.95036 9.64272 1477 ft 160 kts 123°
2026-04-26 13:57 53.94446 9.65847 1475 ft 156 kts 124°
2026-04-26 13:58 53.93862 9.67399 1472 ft 157 kts 123°
2026-04-26 13:58 53.93272 9.68967 1471 ft 157 kts 124°
2026-04-26 13:58 53.92687 9.70527 1470 ft 155 kts 123°
2026-04-26 13:58 53.92114 9.72066 1464 ft 153 kts 124°
2026-04-26 13:59 53.91551 9.73555 1473 ft 151 kts 124°
2026-04-26 13:59 53.90984 9.75049 1482 ft 150 kts 125°
2026-04-26 13:59 53.90422 9.76550 1478 ft 151 kts 123°
2026-04-26 14:00 53.88723 9.81052 1473 ft 151 kts 123°
2026-04-26 14:00 53.88159 9.82555 1473 ft 150 kts 124°
2026-04-26 14:00 53.87785 9.83541 1471 ft 150 kts 124°
2026-04-26 14:01 53.87038 9.85519 1474 ft 148 kts 124°
2026-04-26 14:01 53.86486 9.86982 1471 ft 145 kts 124°
2026-04-26 14:01 53.85950 9.88402 1476 ft 140 kts 124°
2026-04-26 14:01 53.85446 9.89746 1481 ft 134 kts 123°
2026-04-26 14:02 53.84936 9.91064 1470 ft 132 kts 125°
2026-04-26 14:02 53.84451 9.92352 1471 ft 127 kts 124°
2026-04-26 14:02 53.83975 9.93608 1473 ft 126 kts 124°
2026-04-26 14:02 53.83504 9.94853 1485 ft 126 kts 123°
2026-04-26 14:03 53.83033 9.96100 1474 ft 126 kts 125°
2026-04-26 14:03 53.82559 9.97340 1490 ft 125 kts 125°
2026-04-26 14:03 53.82073 9.98615 1489 ft 133 kts 124°
2026-04-26 14:03 53.81578 9.99934 1486 ft 132 kts 124°
2026-04-26 14:04 53.81072 10.01206 1482 ft 128 kts 133°
2026-04-26 14:04 53.80348 10.01957 1483 ft 123 kts 166°
2026-04-26 14:04 53.79516 10.01998 1492 ft 120 kts 191°
2026-04-26 14:04 53.78665 10.01825 1476 ft 119 kts 188°
2026-04-26 14:05 53.77901 10.01668 1470 ft 103 kts 189°
2026-04-26 14:05 53.77224 10.01531 1476 ft 96 kts 189°
2026-04-26 14:05 53.76559 10.01388 1476 ft 98 kts 188°
2026-04-26 14:05 53.75885 10.01262 1484 ft 99 kts 189°
2026-04-26 14:06 53.75197 10.01102 1479 ft 101 kts 190°
2026-04-26 14:06 53.74465 10.00964 1366 ft 111 kts 189°
2026-04-26 14:06 53.73668 10.00793 1236 ft 119 kts 189°
2026-04-26 14:06 53.72858 10.00620 1195 ft 114 kts 189°
2026-04-26 14:07 53.72084 10.00453 1186 ft 110 kts 189°
2026-04-26 14:07 53.71333 10.00312 1182 ft 108 kts 189°
2026-04-26 14:07 53.70599 10.00158 1188 ft 102 kts 188°
2026-04-26 14:07 53.69909 10.00014 1190 ft 99 kts 189°
2026-04-26 14:08 53.69226 9.99873 1180 ft 97 kts 189°
2026-04-26 14:08 53.68559 9.99760 1181 ft 98 kts 186°
2026-04-26 14:08 53.67888 9.99994 1178 ft 98 kts 166°
2026-04-26 14:08 53.67227 10.00291 1186 ft 100 kts 165°
2026-04-26 14:09 53.66570 10.00615 1144 ft 97 kts 162°
2026-04-26 14:09 53.65966 10.01054 980 ft 95 kts 158°
2026-04-26 14:09 53.65339 10.01336 758 ft 93 kts 178°
2026-04-26 14:09 53.64701 10.01271 580 ft 92 kts 194°
2026-04-26 14:10 53.64111 10.00851 340 ft 92 kts 218°
2026-04-26 14:10 53.63675 10.00143 160 ft 83 kts 231°
2026-04-26 14:10 53.63333 9.99437 45 ft 67 kts 231°
2026-04-26 14:10 53.63085 9.98907 43 ft 51 kts 228°
2026-04-26 14:11 53.62728 9.98201 43 ft 31 kts 229°
2026-04-26 14:11 53.62602 9.97947 40 ft 26 kts 231°
2026-04-26 14:11 53.62498 9.97782 38 ft 9 kts 182°
2026-04-26 14:12 53.62462 9.97799 38 ft 12 kts 140°
2026-04-26 14:12 53.62438 9.97841 38 ft 8 kts 128°
2026-04-26 14:12 53.62434 9.97953 39 ft 10 kts 82°
2026-04-26 14:12 53.62487 9.98137 39 ft 15 kts 51°
2026-04-26 14:13 53.62580 9.98331 40 ft 11 kts 50°
2026-04-26 14:13 53.62624 9.98418 40 ft 9 kts 51°
2026-04-26 14:13 53.62678 9.98522 40 ft 14 kts 49°
2026-04-26 14:14 53.62741 9.98653 41 ft 14 kts 52°
2026-04-26 14:14 53.62790 9.98747 41 ft 7 kts 49°
2026-04-26 14:14 53.62818 9.98805 41 ft 7 kts 55°
2026-04-26 14:14 53.62836 9.98885 41 ft 7 kts 96°
2026-04-26 14:15 53.62819 9.98936 41 ft 6 kts 144°
2026-04-26 14:15 53.62791 9.98958 41 ft 16 kts 166°
2026-04-26 14:15 53.62744 9.98953 41 ft 1 kts 226°
2026-04-26 14:15 53.62736 9.98918 41 ft 3 kts 257°
2026-04-26 14:16 53.62732 9.98896 41 ft 0 kts 240°